Location: L�Ave Maria
(50.7161°N, 1.5911°E)
Time: 12:45:09
(UTC+00:00)

ALOS 2 - Pass Details

Date: 10 July 2020
Orbit: 630 x 632 km, 97.9° (Epoch: 07 August)

Event Time Altitude Azimuth Distance (km) Brightness Sun altitude
Exits shadow 22:05:15 12° 112° (ESE) 1,892 4.6 -13.0°
Maximum altitude 22:08:23 24° 62° (ENE) 1,317 4.3 -13.2°
Drops below altitude 10° 22:11:54 10° 9° (N) 2,026 6.1 -13.5°
Sets 22:14:26 0° 356° (N) 2,939 7.5 -13.6°
